Location: The Saddle
(36.8333°N, 80.3417°W)
Time: 06:46:57
(UTC-04:00)

Vanguard 2 Rocket - Pass Details

Date: 02 February 2022
Orbit: 553 x 3323 km, 32.9° (Epoch: 23 May)

Event Time Altitude Azimuth Distance (km) Brightness Sun altitude
Exits shadow 05:33:02 28° 266° (W) 4,493 9.8 -22.2°
Maximum altitude 05:43:47 51° 209° (SSW) 3,818 9.8 -20.1°
Drops below altitude 10° 06:02:33 10° 140° (SE) 6,008 11.8 -16.3°
Sets 06:07:01 0° 136° (SE) 6,810 12.3 -15.4°
